Weather History for Galesburg, IL

Change the Weather History Date:

Sunday, February 26, 2012

  Actual Average Record
Temperature  
Mean Temperature 43 °F -  
Max Temperature 60 °F 40 °F 64 °F (1971)
Min Temperature 26 °F 23 °F -14 °F (1963)
Degree Days  
Heating Degree Days 22    
Moisture  
Dew Point 24 °F    
Average Humidity 51    
Maximum Humidity 74    
Minimum Humidity 26    
Precipitation  
Precipitation 0.00 in - - ()
Sea Level Pressure  
Sea Level Pressure 30.04 in    
Wind  
Wind Speed 13 mph (South)    
Max Wind Speed 30 mph    
Max Gust Speed 36 mph    
Visibility 10 miles    
Events      
Averages and records for this station are not official NWS values.
T = Trace of Precipitation, MM = Missing Value Source: NWS Daily Summary

Daily Weather History Graph

Daily Weather History Graph

Search for Another Location

Airport:

Trip Planner

Search our weather history database for the weather conditions in past years. The results will help you decide how hot, cold, wet, or windy it might be!

Date:

Astronomy

Feb. 26, 2012 Rise Set
Actual Time 6:41 AM CST 5:48 PM CST
Civil Twilight 6:13 AM CST 6:16 PM CST
Nautical Twilight 5:41 AM CST 6:48 PM CST
Astronomical Twilight 5:09 AM CST 7:20 PM CST
Moon 8:33 AM CST (2/26) 10:49 PM CST (2/26)
Length of Visible Light 12h 03m
Length of Day
11h 07m
Waxing Crescent, 21% of the Moon is Illuminated
Feb 26
Waxing Crescent
Feb 29
First Quarter
Mar 8
Full
Mar 14
Last Quarter
Mar 22
New

Hourly Weather History & Observations

Time (CST) Temp. Windchill Dew Point Humidity Pressure Visibility Wind Dir Wind Speed Gust Speed Precip Events Conditions
12:15 AM 27.5 °F 18.6 °F 18.5 °F 69% 30.20 in 10.0 mi East 9.2 mph - N/A   Clear
12:35 AM 27.1 °F 18.9 °F 18.5 °F 70% 30.20 in 10.0 mi East 8.1 mph - N/A   Clear
12:55 AM 26.6 °F 17.5 °F 19.4 °F 74% 30.19 in 10.0 mi East 9.2 mph - N/A   Clear
1:15 AM 27.3 °F 18.4 °F 18.5 °F 69% 30.19 in 10.0 mi East 9.2 mph - N/A   Clear
1:35 AM 27.1 °F 18.2 °F 18.7 °F 70% 30.19 in 10.0 mi East 9.2 mph - N/A   Clear
1:55 AM 27.1 °F 18.9 °F 18.7 °F 70% 30.18 in 10.0 mi ESE 8.1 mph - N/A   Clear
2:15 AM 27.5 °F 19.3 °F 18.9 °F 70% 30.18 in 10.0 mi ESE 8.1 mph - N/A   Clear
2:35 AM 28.4 °F 19.7 °F 19.4 °F 69% 30.16 in 10.0 mi ESE 9.2 mph - N/A   Clear
2:55 AM 28.9 °F 19.2 °F 19.0 °F 67% 30.15 in 10.0 mi ESE 11.5 mph - N/A   Clear
3:35 AM 29.7 °F 21.3 °F 19.2 °F 65% 30.13 in 10.0 mi ESE 9.2 mph - N/A   Clear
3:55 AM 30.2 °F 19.8 °F 19.0 °F 63% 30.12 in 10.0 mi ESE 13.8 mph 17.3 mph N/A   Clear
4:15 AM 31.3 °F 22.1 °F 18.9 °F 60% 30.11 in 10.0 mi ESE 11.5 mph 20.7 mph N/A   Clear
4:35 AM 31.8 °F 22.8 °F 18.9 °F 59% 30.12 in 10.0 mi SE 11.5 mph 20.7 mph N/A   Clear
4:55 AM 31.8 °F 22.8 °F 19.4 °F 60% 30.11 in 10.0 mi ESE 11.5 mph 20.7 mph N/A   Clear
5:15 AM 31.6 °F 22.1 °F 19.4 °F 61% 30.10 in 10.0 mi SE 12.7 mph 23.0 mph N/A   Clear
5:35 AM 31.6 °F 21.2 °F 19.8 °F 62% 30.09 in 10.0 mi SE 15.0 mph 23.0 mph N/A   Clear
5:55 AM 32.0 °F 22.1 °F 19.4 °F 60% 30.08 in 10.0 mi SE 13.8 mph 20.7 mph N/A   Clear
6:15 AM 31.3 °F 22.1 °F 19.9 °F 63% 30.07 in 10.0 mi SE 11.5 mph 19.6 mph N/A   Clear
6:35 AM 31.3 °F 21.6 °F 20.3 °F 64% 30.06 in 10.0 mi SE 12.7 mph 19.6 mph N/A   Clear
6:55 AM 32.0 °F 22.5 °F 20.3 °F 62% 30.05 in 10.0 mi SE 12.7 mph 19.6 mph N/A   Clear
7:15 AM 32.0 °F 21.6 °F 21.2 °F 64% 30.03 in 10.0 mi SE 15.0 mph 21.9 mph N/A   Mostly Cloudy
7:35 AM 33.6 °F 23.7 °F 21.4 °F 61% 30.03 in 10.0 mi SE 15.0 mph 24.2 mph N/A   Overcast
7:55 AM 34.7 °F 24.3 °F 21.7 °F 59% 30.03 in 10.0 mi SE 17.3 mph 24.2 mph N/A   Scattered Clouds
8:15 AM 35.6 °F 25.2 °F 22.1 °F 58% 30.02 in 10.0 mi SSE 18.4 mph 24.2 mph N/A   Clear
8:35 AM 36.5 °F 26.3 °F 22.6 °F 57% 30.02 in 10.0 mi SSE 18.4 mph 25.3 mph N/A   Clear
8:55 AM 39.2 °F 29.8 °F 23.0 °F 52% 30.01 in 10.0 mi SSE 18.4 mph 26.5 mph N/A   Clear
9:15 AM 40.1 °F 29.9 °F 23.0 °F 51% 30.01 in 10.0 mi SSE 23.0 mph 33.4 mph N/A   Clear
9:35 AM 41.5 °F 32.9 °F 23.9 °F 50% 30.00 in 10.0 mi SSE 18.4 mph 26.5 mph N/A   Clear
9:55 AM 44.2 °F 36.4 °F 23.5 °F 44% 30.00 in 10.0 mi SSE 18.4 mph 27.6 mph N/A   Clear
10:15 AM 45.7 °F 37.8 °F 23.7 °F 42% 29.99 in 10.0 mi SSE 20.7 mph 29.9 mph N/A   Clear
10:35 AM 46.9 °F - 24.6 °F 42% 29.99 in 10.0 mi SSE 21.9 mph 29.9 mph N/A   Clear
10:55 AM 48.6 °F - 24.8 °F 39% 29.98 in 10.0 mi South 23.0 mph 33.4 mph N/A   Clear
11:15 AM 49.3 °F - 24.4 °F 38% 29.97 in 10.0 mi South 25.3 mph 32.2 mph N/A   Clear
11:35 AM 50.4 °F - 24.8 °F 37% 29.97 in 10.0 mi South 23.0 mph 32.2 mph N/A   Clear
11:55 AM 51.8 °F - 25.7 °F 36% 29.96 in 10.0 mi South 21.9 mph 32.2 mph N/A   Clear
12:15 PM 53.6 °F - 26.1 °F 35% 29.96 in 10.0 mi South 23.0 mph 31.1 mph N/A   Clear
12:35 PM 55.0 °F - 26.1 °F 33% 29.96 in 10.0 mi South 23.0 mph 34.5 mph N/A   Clear
12:55 PM 55.8 °F - 26.4 °F 32% 29.96 in 10.0 mi South 29.9 mph 35.7 mph N/A   Clear
1:15 PM 56.3 °F - 26.8 °F 32% 29.95 in 10.0 mi South 25.3 mph 35.7 mph N/A   Clear
1:35 PM 57.2 °F - 28.2 °F 33% 29.94 in 10.0 mi South 21.9 mph 32.2 mph N/A   Clear
1:55 PM 58.6 °F - 27.7 °F 31% 29.93 in 10.0 mi South 21.9 mph 29.9 mph N/A   Clear
2:15 PM 59.0 °F - 27.5 °F 30% 29.93 in 10.0 mi South 21.9 mph 32.2 mph N/A   Clear
2:35 PM 59.9 °F - 24.8 °F 26% 29.93 in 10.0 mi SSW 23.0 mph 26.5 mph N/A   Clear
2:55 PM 59.9 °F - 25.7 °F 27% 29.93 in 10.0 mi SSW 23.0 mph 27.6 mph N/A   Clear
3:15 PM 59.9 °F - 27.3 °F 29% 29.93 in 10.0 mi SSW 19.6 mph 25.3 mph N/A   Clear
3:35 PM 59.9 °F - 27.5 °F 29% 29.93 in 10.0 mi SSW 17.3 mph 25.3 mph N/A   Clear
3:55 PM 60.4 °F - 25.5 °F 26% 29.93 in 10.0 mi SSW 16.1 mph 21.9 mph N/A   Clear
4:15 PM 59.9 °F - 25.9 °F 27% 29.94 in 10.0 mi SSW 16.1 mph 20.7 mph N/A   Clear
4:35 PM 59.4 °F - 28.4 °F 31% 29.94 in 10.0 mi SSW 10.4 mph - N/A   Clear
4:55 PM 58.1 °F - 28.8 °F 33% 29.95 in 10.0 mi SW 10.4 mph - N/A   Clear
5:15 PM 57.2 °F - 29.1 °F 34% 29.95 in 10.0 mi SW 10.4 mph - N/A   Clear
5:35 PM 55.4 °F - 29.1 °F 37% 29.96 in 10.0 mi SSW 10.4 mph - N/A   Clear
5:55 PM 54.0 °F - 29.3 °F 39% 29.97 in 10.0 mi SW 8.1 mph - N/A   Clear
6:15 PM 53.2 °F - 28.8 °F 39% 29.98 in 10.0 mi SW 9.2 mph - N/A   Clear
6:35 PM 53.6 °F - 27.3 °F 36% 29.99 in 10.0 mi SSW 10.4 mph - N/A   Clear
6:55 PM 52.7 °F - 27.5 °F 38% 29.99 in 10.0 mi SSW 11.5 mph - N/A   Clear
7:15 PM 49.6 °F - 28.9 °F 45% 29.99 in 10.0 mi SSW 8.1 mph - N/A   Clear
7:35 PM 50.0 °F - 28.9 °F 44% 30.01 in 10.0 mi West 11.5 mph 17.3 mph N/A   Clear
7:55 PM 46.9 °F - 30.7 °F 53% 30.02 in 10.0 mi West 9.2 mph - N/A   Clear
8:15 PM 44.8 °F 41.6 °F 30.6 °F 57% 30.03 in 10.0 mi West 5.8 mph - N/A   Clear
8:35 PM 41.9 °F 39.0 °F 30.4 °F 64% 30.04 in 10.0 mi West 4.6 mph - N/A   Clear
8:55 PM 41.7 °F 35.2 °F 30.7 °F 65% 30.06 in 10.0 mi NW 11.5 mph - N/A   Clear
9:15 PM 43.2 °F 37.0 °F 29.1 °F 58% 30.07 in 10.0 mi NW 11.5 mph - N/A   Clear
9:35 PM 41.9 °F 36.9 °F 27.3 °F 56% 30.08 in 10.0 mi NW 8.1 mph - N/A   Clear
9:55 PM 37.6 °F - 27.9 °F 68% 30.09 in 10.0 mi Calm Calm - N/A   Clear
10:15 PM 38.5 °F 36.1 °F 27.5 °F 65% 30.10 in 10.0 mi NW 3.5 mph - N/A   Clear
10:35 PM 38.7 °F 36.3 °F 26.1 °F 61% 30.10 in 10.0 mi WNW 3.5 mph - N/A   Clear
10:55 PM 37.4 °F 32.8 °F 25.7 °F 63% 30.11 in 10.0 mi NW 5.8 mph - N/A   Clear
11:15 PM 36.9 °F 34.3 °F 26.1 °F 65% 30.12 in 10.0 mi NW 3.5 mph - N/A   Clear
11:35 PM 37.0 °F 33.3 °F 26.1 °F 65% 30.13 in 10.0 mi NW 4.6 mph - N/A   Clear
11:55 PM 35.4 °F - 26.1 °F 69% 30.13 in 10.0 mi Calm Calm - N/A   Clear